NOAA 17 DEB, 48733

Orbit data source: Space-Track

NOAA 17 DEB, 48733 is space debris in SSO originally from a launch on Mon, 24 Jun 2002 UTC launched from the Air Force Western Test Range (AFWTR). Debris objects in space refer to the collection of defunct objects orbiting the Earth. Examples of debris include non-operational satellites, rocket bodies, and fragments generated from explosions, collisions, or faulty payload assembly.

Loading next visibility...
Identifier
48733, 2002-032BS
Orbit
SSO
Country
Flag of USUS
Related business
Manufacturer
Unknown
Mission
Spacecraft
Bus & Motor
Unknown
Mass
Unknown
Launch date (UTC)
2002-06-24 (23 years ago)
Launch vehicle
Unknown
Launch site
Air Force Western Test Range (AFWTR)
Object type
Payload
Rocket body
Debris
Shape & HBR
Unknown shape, 0.1 m
Radar Cross Section
Small (<0.1 m²)

Expand to show TLE details & history
Last TLE update: 1 day ago

TLE from 1 day ago
0 NOAA 17 DEB
1 48733U 02032BS  25348.39184258  .00216715  00000-0  73509-2 0  9992
2 48733  98.7051  42.7608 0007826  57.0993 303.0995 15.29567213252010
Epoch: 2025-12-14T09:24Z
TLE epoch observation values (Epoch: 2025-12-14T09:24:15.198Z)
Latitude
-0.00008°
Longitude
178.39206°
Altitude
477.24 km
Speed
7.629 km/s
True Right ascension
02h 51m 02s
True Declination
0° 00' 00"
Sunlit
Object was in full shadow at epoch
Visualization orbit readout
Latitude
Unknown
Longitude
Unknown
Altitude
Unknown
Speed
Unknown
Apparent Right ascension
Unknown
Apparent Declination
Unknown
Sunlit
N/A
Visualization observer readout
Local Sidereal Time
17:03:50
Azimuth
Unknown
Elevation
Unknown
Doppler factor
Unknown
Orbital elements
Apogee altitude
479.481 km
Perigee altitude
468.756 km
Semi-major axis
6,852.256 km
Eccentricity
0.00078
Inclination
98.7051°
RAAN
42.7608°
Arg. of periapsis
57.0993°
True anomaly
303.02433°
Mean anomaly
303.0995°
Eccentric anomaly
303.06192°
Mean motion
3.82642 °/min
Orbital period
94.08 mins
BSTAR
0.0073509
Loading maneuver chart data...
Computing Atmospheric mass density...
Loading historical data...
Loading historical data...
Loading historical data...
Loading historical data...
Loading historical data...
Loading historical data...
Loading historical data...

Documentation

Showing up to 5 results
|